FENGYUN 1C DEB

Satellite information

Favourite Embed

Satellite Type and Status

DEBRISIN ORBIT

Key statistics

Satellite FENGYUN 1C DEB at a glance.

Uptime

9555

Days in orbit

Revolutions

≈ 14.1

Per day

Orbit

SSO

Sun Synchronous Orbit

Inclination

98.8

Latest

Satellite identification and parameters

Extended collection of information and parameters for FENGYUN 1C DEB.

Object identification

Identified? True

Debris? True

Object name: FENGYUN 1C DEB

International designator: 1999-025BVC

Object number (NORAD): 31464

Object ID (CCSDS): 31464

Country: PEOPLES REPUBLIC OF CHINA (PRC)

Current information (Y/N): Y

RCS size: SMALL

Orbital parameters

Period: 101.964 minutes

Inclination: 98.8153 deg

SMA: 7229.757 km

Apoapsis: 882.88 km

Periapsis: 820.365 km

RAAN: 236.9165 deg

Eccentricy: 0.0043235

Argument of periapsis: 336.5871 deg

Mean anomaly: 85.3277 deg

Mean motion: 14.12268187 rev/day

Mean motion (dot): 0.00000322 rev/day2

B* drag term: 0.00019724 1/REarth

Two-line elements (TLE)

Creation date: July 6, 2025, 6:05 p.m.

Reference frame: TEME

Reference center: EARTH

Epoch: July 6, 2025, 8:56 a.m. UTC

TLE line 0: 0 FENGYUN 1C DEB

TLE line 1: 1 31464U 99025BVC 25187.37284903 .00000322 00000-0 19724-3 0 9995

TLE line 2: 2 31464 98.8153 236.9165 0043235 336.5871 85.3277 14.12268187924306

Live tracking on map

Real-time ground track for satellite FENGYUN 1C DEB.

In-orbit conjunctions

A list of the most updated potential collisions computed for object FENGYUN 1C DEB.

Target Orbit TCA Probability of collision Miss distance Type
SL-16 DEB LEO 2025-03-09 02:29:35 0.0003202538 49.0 (m) DEBRIS
COSMOS 1275 DEB LEO 2024-11-14 20:37:28 0.0001591273 298.0 (m) DEBRIS

Associated space launch

Chinese polar orbiting meteorological satellite

FENGYUN 1C DEB was lifted into orbit during the mission ‘Long March 4B | Feng Yun 1C’, on board a Long March 4B space rocket.

The launch took place on May 10, 1999, 1:33 a.m. from Launch Complex 7.

For more information about the launch, click the button.

Launch to space Long March 4B | Feng Yun 1C
Long March 4B | Feng Yun 1C

Agency: N/A

Status: Launch Successful

Launch date: May 10, 1999, 1:33 a.m. UTC

Rocket: Long March 4B

Launch pad: Launch Complex 7

Location: Taiyuan Satellite Launch Center, People's Republic of China

...

Latest news about this satellite

There are no fresh news available about this satellite. Check back as we update our databases every day.


Newsletter sign-up

Weekly statistics, charts and insights to help you stay on top of the space industry.